Regional Weather Roundup
Issued by NWS

Home | Current Version | Previous Version | Text Only | Print | Product List | Glossary On
Versions: 1 2 3 4 5 6 7 8 9 10 11 12 13 14 15 16 17 18 19 20 21 22 23 24 25 26 27 28 29 30 31 32 33 34 35 36 37 38 39 40 41 42 43 44 45 46 47 48 49 50
452
ASUS44 KLIX 230113
RWRLA
LOUISIANA WEATHER ROUNDUP
NATIONAL WEATHER SERVICE NEW ORLEANS LA
800 PM CDT FRI SEP 22 2017

NOTE: "FAIR" INDICATES FEW OR NO CLOUDS BELOW 12,000 FEET WITH NO
      SIGNIFICANT WEATHER AND/OR OBSTRUCTIONS TO VISIBILITY.
      SKY/WX - SKY CONDITION AND SIGNIFICANT WEATHER.
      TMP - AIR TEMPERATURE.    DP   - DEWPOINT TEMPERATURE.
      RH  - RELATIVE HUMIDITY.  PRES - PRESSURE.
      HX  - HEAT INDEX.         WCI  - WIND CHILL INDEX.

*  THESE STATIONS ARE NOT NWS OR FAA STATIONS AND ARE NOT UNDER
   NWS QUALITY CONTROL.

LAZ040-048-061>063-065-066-069-230200-
SOUTHEAST LOUISIANA

CITY           SKY/WX    TMP DP  RH WIND       PRES   REMARKS
N.O. INTL ARPT NOT AVBL
N.O. LAKEFRONT NOT AVBL
N.O. DOWNTOWN* NOT AVBL
RESERVE*       FAIR      83  73  73 CALM      29.92S
SLIDELL        NOT AVBL
BATON ROUGE    NOT AVBL
BOOTHVILLE     CLEAR     81  75  82 CALM      29.93R
BELLE CHASSE   NOT AVBL
BOGALUSA*      FAIR      82  72  70 SE9       29.95R
GALLIANO*      CLEAR     77  72  85 CALM      29.92S
NEW ROADS*     FAIR      80  73  79 CALM      29.92R
GONZALES*      MOCLDY    79  73  80 CALM      29.92R
HAMMOND*       CLEAR     81  70  69 CALM      29.92S
HOUMA*         NOT AVBL
PORT FOURCHON* MOCLDY    82  73  74 CALM      29.93R

$$

LAZ041-044-053-054-230200-
SOUTHWEST LOUISIANA

CITY           SKY/WX    TMP DP  RH WIND       PRES   REMARKS
LAKE CHARLES   NOT AVBL
LAFAYETTE      NOT AVBL
PATTERSON      NOT AVBL
SALT POINT       N/A     77  74  90 CALM      29.91R
NEW IBERIA     NOT AVBL
CHENAULT AIRPK PTCLDY    82  73  74 SW6       29.91S

$$

LAZ027-028-230200-
CENTRAL LOUISIANA

CITY           SKY/WX    TMP DP  RH WIND       PRES   REMARKS
FORT POLK      NOT AVBL
ALEXANDRIA INT NOT AVBL
ALEXANDRIA     NOT AVBL

$$

LAZ001-002-230200-
NORTHWEST LOUISIANA

CITY           SKY/WX    TMP DP  RH WIND       PRES   REMARKS
SHREVEPORT     NOT AVBL
BARKSDALE AFB  CLEAR     80  69  71 CALM      29.92S
DTN SHREVEPORT CLEAR     84  68  58 SE3       29.92S

$$

LAZ014-016-230200-
NORTHEAST LOUISIANA

CITY           SKY/WX    TMP DP  RH WIND       PRES   REMARKS
MONROE         PTCLDY    79  74  84 CALM      29.94S
TALLULAH       CLEAR     77  73  87 S5        29.93S

$$





USA.gov is the U.S. government's official web portal to all federal, state and local government web resources and services.